DLH3DL OMDB-EDDF

Flight info

Callsign DLH3DL
Flight time N/A
Altitude 38000
Route SENP2F SENPA N571 ALPOB L768 ULADA Q143 MEDGO N697 HIL A788 HLF L604 WEJ L677 CVO L617 NOZ L551 ANTAR AKINA RIGRO PEREN UL863 EVIVI OKANA TONDO ARSIN BUDEX IPDUL RAPET T170 GAPLA T178 KERAX KERA5A
Aircraft A388/J-VGDW/C

Departure

Time N/A
Airport Dubai International Airport (OMDB)

Arrival

Time 2026-05-07 20:08
Airport Frankfurt Main Airport (EDDF)
Time Latitude Longitude Altitude Speed Heading
2026-05-07 14:38 26.96343 46.07397 38000 ft 507 kts 279°
2026-05-07 14:38 26.97481 45.99601 38000 ft 507 kts 279°
2026-05-07 14:39 26.98615 45.91798 38000 ft 507 kts 279°
2026-05-07 14:39 26.99747 45.83978 38000 ft 507 kts 279°
2026-05-07 14:40 27.00874 45.76165 38000 ft 507 kts 279°
2026-05-07 14:40 27.01997 45.68345 38000 ft 507 kts 279°
2026-05-07 14:41 27.03116 45.60528 38000 ft 507 kts 279°
2026-05-07 14:41 27.04219 45.52799 38000 ft 507 kts 279°
2026-05-07 14:42 27.05346 45.44925 38000 ft 507 kts 279°
2026-05-07 14:42 27.06304 45.37074 38000 ft 508 kts 277°
2026-05-07 14:43 27.07135 45.29207 38000 ft 508 kts 277°
2026-05-07 14:43 27.07993 45.21340 38000 ft 508 kts 277°
2026-05-07 14:44 27.08855 45.13533 38000 ft 508 kts 277°
2026-05-07 14:44 27.09722 45.05663 38000 ft 508 kts 277°
2026-05-07 14:45 27.10582 44.97798 38000 ft 508 kts 277°
2026-05-07 14:45 27.11438 44.89933 38000 ft 508 kts 277°
2026-05-07 14:46 27.12290 44.82072 38000 ft 508 kts 277°
2026-05-07 14:46 27.13138 44.74198 38000 ft 507 kts 277°
2026-05-07 14:47 27.13982 44.66331 38000 ft 508 kts 277°
2026-05-07 14:47 27.14823 44.58464 38000 ft 508 kts 277°
2026-05-07 14:48 27.15661 44.50589 38000 ft 508 kts 277°
2026-05-07 14:48 27.16493 44.42720 38000 ft 507 kts 277°
2026-05-07 14:49 27.17321 44.34838 38000 ft 508 kts 276°
2026-05-07 14:49 27.18137 44.26956 38000 ft 508 kts 276°
2026-05-07 14:50 27.18950 44.19073 38000 ft 508 kts 276°
2026-05-07 14:50 27.19758 44.11190 38000 ft 508 kts 276°
2026-05-07 14:51 27.20562 44.03306 38000 ft 508 kts 276°
2026-05-07 14:51 27.21357 43.95471 38000 ft 508 kts 276°
2026-05-07 14:52 27.22152 43.87579 38000 ft 508 kts 276°
2026-05-07 14:52 27.22944 43.79685 38000 ft 508 kts 276°
2026-05-07 14:53 27.23601 43.73100 38000 ft 509 kts 276°
2026-05-07 14:53 27.24385 43.65202 38000 ft 508 kts 276°
2026-05-07 14:54 27.25168 43.57290 38000 ft 508 kts 276°
2026-05-07 14:54 27.25946 43.49388 38000 ft 509 kts 276°
2026-05-07 14:55 27.26718 43.41485 38000 ft 509 kts 276°
2026-05-07 14:55 27.27487 43.33582 38000 ft 509 kts 276°
2026-05-07 14:56 27.28251 43.25674 38000 ft 509 kts 276°
2026-05-07 14:56 27.29011 43.17766 38000 ft 509 kts 276°
2026-05-07 14:57 27.29765 43.09862 38000 ft 509 kts 276°
2026-05-07 14:57 27.30517 43.01946 38000 ft 509 kts 276°
2026-05-07 14:58 27.31265 42.94015 38000 ft 509 kts 276°
2026-05-07 14:58 27.32009 42.86077 38000 ft 509 kts 276°
2026-05-07 14:59 27.32747 42.78158 38000 ft 509 kts 276°
2026-05-07 14:59 27.33476 42.70287 38000 ft 509 kts 276°
2026-05-07 15:00 27.34205 42.62357 38000 ft 510 kts 276°
2026-05-07 15:00 27.34931 42.54423 38000 ft 510 kts 276°
2026-05-07 15:01 27.35652 42.46495 38000 ft 510 kts 276°
2026-05-07 15:01 27.36369 42.38553 38000 ft 510 kts 276°
2026-05-07 15:02 27.37081 42.30611 38000 ft 510 kts 276°
2026-05-07 15:02 27.37788 42.22674 38000 ft 510 kts 276°
2026-05-07 15:03 27.38492 42.14718 38000 ft 511 kts 276°
2026-05-07 15:03 27.39191 42.06770 38000 ft 511 kts 275°
2026-05-07 15:04 27.39883 41.98841 38000 ft 511 kts 275°
2026-05-07 15:04 27.40574 41.90878 38001 ft 511 kts 275°
2026-05-07 15:05 27.41260 41.82918 38000 ft 511 kts 275°
2026-05-07 15:05 27.41911 41.74948 37997 ft 511 kts 272°
2026-05-07 15:06 27.41312 41.66987 38000 ft 511 kts 257°
2026-05-07 15:06 27.38996 41.59499 38002 ft 512 kts 245°
2026-05-07 15:07 27.36064 41.52206 38000 ft 512 kts 246°
2026-05-07 15:07 27.33147 41.44891 38000 ft 512 kts 246°
2026-05-07 15:08 27.30218 41.37581 38000 ft 513 kts 246°
2026-05-07 15:08 27.27282 41.30274 38000 ft 513 kts 246°
2026-05-07 15:09 27.24353 41.23000 38000 ft 513 kts 245°
2026-05-07 15:09 27.22234 41.17745 38000 ft 513 kts 245°
2026-05-07 15:10 27.19746 41.10247 37999 ft 512 kts 259°
2026-05-07 15:10 27.19043 41.02304 38000 ft 511 kts 266°
2026-05-07 15:11 27.18547 40.94336 38000 ft 511 kts 266°
2026-05-07 15:11 27.18078 40.86419 38000 ft 511 kts 266°
2026-05-07 15:12 27.17608 40.78450 38000 ft 512 kts 266°
2026-05-07 15:12 27.17131 40.70475 38000 ft 512 kts 266°
2026-05-07 15:13 27.16647 40.62501 38000 ft 511 kts 266°
2026-05-07 15:13 27.16159 40.54543 38000 ft 511 kts 266°
2026-05-07 15:14 27.15666 40.46589 38000 ft 511 kts 266°
2026-05-07 15:14 27.15170 40.38636 38000 ft 510 kts 266°
2026-05-07 15:15 27.14671 40.30726 38000 ft 511 kts 266°
2026-05-07 15:15 27.14161 40.22713 38000 ft 511 kts 266°
2026-05-07 15:16 27.13654 40.14808 38000 ft 511 kts 266°
2026-05-07 15:16 27.13135 40.06794 38000 ft 512 kts 266°
2026-05-07 15:17 27.12618 39.98889 38000 ft 511 kts 266°
2026-05-07 15:17 27.12094 39.90932 38000 ft 511 kts 265°
2026-05-07 15:18 27.11564 39.82959 37999 ft 512 kts 265°
2026-05-07 15:18 27.11031 39.75002 38000 ft 511 kts 265°
2026-05-07 15:19 27.10493 39.67047 38000 ft 512 kts 265°
2026-05-07 15:19 27.09950 39.59082 38000 ft 511 kts 265°
2026-05-07 15:20 27.09401 39.51105 38000 ft 512 kts 265°
2026-05-07 15:20 27.08848 39.43130 38001 ft 513 kts 265°
2026-05-07 15:21 27.08292 39.35162 37999 ft 512 kts 265°
2026-05-07 15:21 27.07731 39.27201 38000 ft 512 kts 265°
2026-05-07 15:22 27.07169 39.19295 38000 ft 511 kts 265°
2026-05-07 15:22 27.06600 39.11349 38000 ft 511 kts 265°
2026-05-07 15:23 27.06026 39.03390 38000 ft 511 kts 265°
2026-05-07 15:23 27.05447 38.95435 37999 ft 511 kts 265°
2026-05-07 15:24 27.04865 38.87488 38000 ft 511 kts 265°
2026-05-07 15:24 27.04277 38.79538 38000 ft 511 kts 265°
2026-05-07 15:25 27.03686 38.71599 38000 ft 511 kts 265°
2026-05-07 15:25 27.03090 38.63643 38000 ft 511 kts 265°
2026-05-07 15:26 27.02489 38.55698 38000 ft 511 kts 265°
2026-05-07 15:26 27.01884 38.47749 38000 ft 511 kts 265°
2026-05-07 15:27 27.01274 38.39806 38000 ft 512 kts 265°
2026-05-07 15:27 27.00661 38.31868 38000 ft 511 kts 265°
2026-05-07 15:28 27.00042 38.23920 38000 ft 511 kts 265°
2026-05-07 15:28 26.99420 38.15992 38000 ft 510 kts 265°
2026-05-07 15:29 26.98794 38.08067 38000 ft 510 kts 265°
2026-05-07 15:29 26.98163 38.00139 38000 ft 510 kts 265°
2026-05-07 15:30 26.97532 37.92267 38000 ft 510 kts 265°
2026-05-07 15:30 26.96893 37.84349 38000 ft 510 kts 265°
2026-05-07 15:31 26.96246 37.76377 38000 ft 512 kts 265°
2026-05-07 15:31 26.95598 37.68467 38000 ft 513 kts 265°
2026-05-07 15:32 26.94940 37.60483 38000 ft 515 kts 265°
2026-05-07 15:32 26.94277 37.52494 38000 ft 514 kts 264°
2026-05-07 15:33 26.93612 37.44530 38000 ft 513 kts 264°
2026-05-07 15:33 26.92943 37.36575 38001 ft 513 kts 264°
2026-05-07 15:34 26.92270 37.28637 38001 ft 512 kts 264°
2026-05-07 15:34 26.91592 37.20679 38000 ft 514 kts 264°
2026-05-07 15:35 26.90908 37.12717 37999 ft 513 kts 264°
2026-05-07 15:35 26.90339 37.06119 38000 ft 511 kts 264°
2026-05-07 15:36 26.89654 36.98237 38000 ft 506 kts 264°
2026-05-07 15:36 26.88968 36.90389 38000 ft 506 kts 264°
2026-05-07 15:37 26.88277 36.82541 38000 ft 506 kts 264°
2026-05-07 15:37 26.87469 36.73424 38001 ft 508 kts 264°
2026-05-07 15:38 26.86882 36.66845 38000 ft 505 kts 264°
2026-05-07 15:38 26.86180 36.59013 38000 ft 505 kts 264°
2026-05-07 15:39 26.85478 36.51233 38000 ft 505 kts 264°
2026-05-07 15:39 26.84768 36.43416 38000 ft 504 kts 264°
2026-05-07 15:40 26.84053 36.35596 38000 ft 504 kts 264°
2026-05-07 15:40 26.83335 36.27788 38000 ft 505 kts 264°
2026-05-07 15:41 26.82613 36.19973 38000 ft 505 kts 264°
2026-05-07 15:41 26.81885 36.12160 38000 ft 504 kts 264°
2026-05-07 15:42 26.81154 36.04346 38000 ft 503 kts 264°
2026-05-07 15:42 26.80421 35.96557 38000 ft 503 kts 264°
2026-05-07 15:43 26.79686 35.88752 38000 ft 503 kts 264°
2026-05-07 15:43 26.80098 35.80969 38001 ft 503 kts 284°
2026-05-07 15:44 26.81248 35.77270 38001 ft 504 kts 295°
2026-05-07 15:44 26.82963 35.73856 38001 ft 504 kts 305°
2026-05-07 15:44 26.87579 35.68039 37999 ft 504 kts 314°
2026-05-07 15:45 26.92435 35.62362 38000 ft 504 kts 313°
2026-05-07 15:45 26.97276 35.56677 38000 ft 504 kts 313°
2026-05-07 15:46 27.04535 35.48145 38000 ft 504 kts 313°
2026-05-07 15:47 27.09370 35.42454 38000 ft 504 kts 313°
2026-05-07 15:47 27.14196 35.36768 38000 ft 504 kts 313°
2026-05-07 15:48 27.19031 35.31062 38000 ft 504 kts 313°
2026-05-07 15:48 27.23860 35.25356 38000 ft 504 kts 313°
2026-05-07 15:49 27.28690 35.19641 38000 ft 504 kts 313°
2026-05-07 15:49 27.33523 35.13916 38000 ft 504 kts 313°
2026-05-07 15:50 27.38354 35.08184 38000 ft 504 kts 313°
2026-05-07 15:50 27.43172 35.02459 38000 ft 504 kts 313°
2026-05-07 15:51 27.47992 34.96725 38000 ft 504 kts 313°
2026-05-07 15:51 27.52892 34.91088 38002 ft 504 kts 317°
2026-05-07 15:52 27.58021 34.85701 38000 ft 504 kts 316°
2026-05-07 15:52 27.63109 34.80322 38000 ft 504 kts 316°
2026-05-07 15:53 27.68226 34.74905 38000 ft 504 kts 316°
2026-05-07 15:53 27.73340 34.69485 38000 ft 504 kts 316°
2026-05-07 15:54 27.78448 34.64063 38000 ft 504 kts 316°
2026-05-07 15:54 27.83555 34.58636 38000 ft 504 kts 316°
2026-05-07 15:55 27.88664 34.53199 38000 ft 504 kts 316°
2026-05-07 15:55 27.93758 34.47770 38000 ft 504 kts 316°
2026-05-07 15:56 27.98858 34.42316 37998 ft 504 kts 314°
2026-05-07 15:56 28.03430 34.36313 38000 ft 505 kts 309°
2026-05-07 15:57 28.07894 34.30143 38000 ft 507 kts 309°
2026-05-07 15:57 28.12368 34.23961 37999 ft 506 kts 309°
2026-05-07 15:58 28.16809 34.17804 38000 ft 509 kts 309°
2026-05-07 15:58 28.21294 34.11575 38000 ft 512 kts 309°
2026-05-07 15:59 28.25821 34.05278 38001 ft 518 kts 309°
2026-05-07 15:59 28.30361 33.98954 38002 ft 516 kts 309°
2026-05-07 16:00 28.34878 33.92651 37999 ft 516 kts 309°
2026-05-07 16:00 28.39417 33.86309 38000 ft 513 kts 309°
2026-05-07 16:01 28.43912 33.80018 37999 ft 513 kts 309°
2026-05-07 16:01 28.48379 33.73758 37998 ft 507 kts 309°
2026-05-07 16:02 28.52840 33.67497 37999 ft 509 kts 309°
2026-05-07 16:02 28.57285 33.61256 38001 ft 512 kts 309°
2026-05-07 16:03 28.61738 33.54999 38001 ft 507 kts 309°
2026-05-07 16:03 28.66170 33.48759 38000 ft 506 kts 309°
2026-05-07 16:04 28.70594 33.42516 38000 ft 506 kts 309°
2026-05-07 16:04 28.75015 33.36269 38000 ft 506 kts 309°
2026-05-07 16:05 28.79424 33.30029 38000 ft 506 kts 308°
2026-05-07 16:05 28.83839 33.23773 38001 ft 505 kts 308°
2026-05-07 16:06 28.88231 33.17539 38000 ft 504 kts 308°
2026-05-07 16:06 28.92619 33.11301 38000 ft 504 kts 308°
2026-05-07 16:07 28.97004 33.05058 38000 ft 504 kts 308°
2026-05-07 16:07 29.01388 32.98808 38000 ft 504 kts 308°
2026-05-07 16:08 29.05767 32.92554 38000 ft 504 kts 308°
2026-05-07 16:08 29.10148 32.86290 38000 ft 504 kts 308°
2026-05-07 16:09 29.14492 32.80067 38000 ft 504 kts 308°
2026-05-07 16:09 29.18864 32.73797 38000 ft 504 kts 308°
2026-05-07 16:10 29.23231 32.67522 38000 ft 504 kts 308°
2026-05-07 16:10 29.27599 32.61238 38000 ft 504 kts 308°
2026-05-07 16:11 29.31954 32.54931 38000 ft 505 kts 308°
2026-05-07 16:11 29.36297 32.48593 38000 ft 508 kts 308°
2026-05-07 16:12 29.40655 32.42230 38000 ft 507 kts 308°
2026-05-07 16:12 29.45020 32.35851 38000 ft 509 kts 308°
2026-05-07 16:13 29.49395 32.29450 38000 ft 510 kts 308°
2026-05-07 16:13 29.53774 32.23031 38000 ft 511 kts 308°
2026-05-07 16:14 29.58093 32.16692 38000 ft 504 kts 308°
2026-05-07 16:14 29.62409 32.10345 38000 ft 505 kts 308°
2026-05-07 16:15 29.66738 32.03971 38000 ft 505 kts 308°
2026-05-07 16:15 29.71072 31.97580 38000 ft 506 kts 308°
2026-05-07 16:16 29.75403 31.91182 38000 ft 506 kts 308°
2026-05-07 16:16 29.79698 31.84806 38000 ft 506 kts 307°
2026-05-07 16:17 29.83877 31.78279 38000 ft 507 kts 306°
2026-05-07 16:17 29.88053 31.71714 38000 ft 507 kts 306°
2026-05-07 16:18 29.92237 31.65168 38000 ft 507 kts 306°
2026-05-07 16:18 29.96455 31.58645 38000 ft 507 kts 307°
2026-05-07 16:19 30.00672 31.52132 38000 ft 506 kts 306°
2026-05-07 16:19 30.04851 31.45657 38000 ft 506 kts 306°
2026-05-07 16:20 30.09147 31.39237 38001 ft 505 kts 311°
2026-05-07 16:20 30.14173 31.33574 38000 ft 504 kts 317°
2026-05-07 16:21 30.18444 31.28990 38000 ft 504 kts 317°
2026-05-07 16:21 30.23573 31.23462 38000 ft 504 kts 317°
2026-05-07 16:22 30.28718 31.17919 38000 ft 504 kts 317°
2026-05-07 16:22 30.33845 31.12391 38000 ft 504 kts 317°
2026-05-07 16:23 30.38976 31.06850 38000 ft 504 kts 317°
2026-05-07 16:23 30.44120 31.01288 38000 ft 504 kts 317°
2026-05-07 16:24 30.49209 30.95777 38000 ft 504 kts 316°
2026-05-07 16:24 30.54334 30.90217 38000 ft 504 kts 316°
2026-05-07 16:25 30.59445 30.84666 38000 ft 504 kts 316°
2026-05-07 16:25 30.64570 30.79091 38000 ft 504 kts 316°
2026-05-07 16:26 30.69684 30.73518 38000 ft 504 kts 316°
2026-05-07 16:26 30.74790 30.67946 38000 ft 504 kts 316°
2026-05-07 16:27 30.79905 30.62355 38000 ft 504 kts 316°
2026-05-07 16:27 30.85015 30.56762 38000 ft 504 kts 316°
2026-05-07 16:28 30.90124 30.51162 38000 ft 504 kts 316°
2026-05-07 16:28 30.95227 30.45558 38000 ft 504 kts 316°
2026-05-07 16:29 31.00312 30.39967 38000 ft 504 kts 316°
2026-05-07 16:29 31.05332 30.34343 37998 ft 504 kts 312°
2026-05-07 16:30 31.09377 30.27699 38000 ft 504 kts 297°
2026-05-07 16:30 31.11936 30.20112 38001 ft 504 kts 287°
2026-05-07 16:31 31.14062 30.12323 38000 ft 503 kts 288°
2026-05-07 16:31 31.16197 30.04535 38000 ft 503 kts 288°
2026-05-07 16:32 31.19372 29.97295 38001 ft 504 kts 307°
2026-05-07 16:32 31.24431 29.91672 38000 ft 504 kts 326°
2026-05-07 16:33 31.30579 29.87714 38000 ft 505 kts 332°
2026-05-07 16:33 31.36772 29.83837 38000 ft 504 kts 332°
2026-05-07 16:34 31.42958 29.79955 38000 ft 504 kts 332°
2026-05-07 16:34 31.49142 29.76073 38000 ft 504 kts 332°
2026-05-07 16:35 31.55329 29.72185 38000 ft 504 kts 332°
2026-05-07 16:35 31.61510 29.68294 38000 ft 504 kts 332°
2026-05-07 16:36 31.67700 29.64392 38000 ft 504 kts 332°
2026-05-07 16:36 31.73856 29.60506 38000 ft 504 kts 331°
2026-05-07 16:37 31.80038 29.56598 38000 ft 504 kts 331°
2026-05-07 16:37 31.86221 29.52682 38000 ft 504 kts 331°
2026-05-07 16:38 31.92405 29.48760 38000 ft 504 kts 331°
2026-05-07 16:38 31.98580 29.44838 38000 ft 504 kts 331°
2026-05-07 16:39 32.04756 29.40909 38000 ft 504 kts 331°
2026-05-07 16:39 32.10933 29.36972 38000 ft 504 kts 331°
2026-05-07 16:40 32.17114 29.33027 38000 ft 504 kts 331°
2026-05-07 16:40 32.23252 29.29104 38000 ft 504 kts 331°
2026-05-07 16:41 32.29436 29.25139 38000 ft 504 kts 331°
2026-05-07 16:41 32.35613 29.21175 38000 ft 504 kts 331°
2026-05-07 16:42 32.41778 29.17212 38000 ft 504 kts 331°
2026-05-07 16:42 32.47942 29.13244 38000 ft 504 kts 331°
2026-05-07 16:43 32.54111 29.09266 38000 ft 504 kts 331°
2026-05-07 16:43 32.60274 29.05285 38000 ft 504 kts 331°
2026-05-07 16:44 32.66396 29.01325 38000 ft 504 kts 331°
2026-05-07 16:44 32.72566 28.97327 38000 ft 504 kts 331°
2026-05-07 16:45 32.78729 28.93327 38000 ft 504 kts 331°
2026-05-07 16:45 32.84888 28.89325 38000 ft 504 kts 331°
2026-05-07 16:46 32.91047 28.85315 38000 ft 504 kts 331°
2026-05-07 16:46 32.97165 28.81326 38000 ft 504 kts 331°
2026-05-07 16:47 33.03356 28.77282 38000 ft 504 kts 331°
2026-05-07 16:47 33.09469 28.73283 38000 ft 504 kts 331°
2026-05-07 16:48 33.15623 28.69251 38000 ft 504 kts 331°
2026-05-07 16:48 33.21792 28.65203 38000 ft 504 kts 331°
2026-05-07 16:49 33.27944 28.61159 38000 ft 504 kts 331°
2026-05-07 16:49 33.34092 28.57111 38000 ft 504 kts 331°
2026-05-07 16:50 33.40237 28.53059 38000 ft 504 kts 331°
2026-05-07 16:50 33.46347 28.49023 38000 ft 504 kts 331°
2026-05-07 16:51 33.52503 28.44950 38000 ft 504 kts 331°
2026-05-07 16:51 33.58646 28.40879 38000 ft 504 kts 331°
2026-05-07 16:52 33.64785 28.36804 38000 ft 504 kts 330°
2026-05-07 16:52 33.70922 28.32723 38000 ft 504 kts 330°
2026-05-07 16:53 33.77065 28.28633 38000 ft 504 kts 330°
2026-05-07 16:53 33.83229 28.24601 38000 ft 504 kts 333°
2026-05-07 16:54 33.89510 28.20835 38000 ft 504 kts 333°
2026-05-07 16:54 33.95789 28.17058 38000 ft 504 kts 333°
2026-05-07 16:55 34.02064 28.13239 38000 ft 504 kts 333°
2026-05-07 16:55 34.08322 28.09414 38000 ft 504 kts 333°
2026-05-07 16:56 34.14550 28.05600 38000 ft 504 kts 333°
2026-05-07 16:56 34.23938 27.99841 38000 ft 504 kts 333°
2026-05-07 16:57 34.30201 27.95990 38000 ft 505 kts 333°
2026-05-07 16:57 34.36453 27.92139 38000 ft 504 kts 333°
2026-05-07 16:58 34.42709 27.88280 38000 ft 504 kts 333°
2026-05-07 16:58 34.48970 27.84411 38000 ft 504 kts 333°
2026-05-07 16:59 34.55230 27.80536 38000 ft 504 kts 333°
2026-05-07 16:59 34.61486 27.76657 38000 ft 504 kts 333°
2026-05-07 17:00 34.67737 27.72774 38000 ft 504 kts 333°
2026-05-07 17:00 34.73990 27.68884 38000 ft 504 kts 333°
2026-05-07 17:01 34.80195 27.65017 38000 ft 504 kts 333°
2026-05-07 17:01 34.86440 27.61118 38000 ft 504 kts 333°
2026-05-07 17:02 34.92694 27.57207 38000 ft 504 kts 333°
2026-05-07 17:02 34.98938 27.53296 38000 ft 504 kts 332°
2026-05-07 17:03 35.05177 27.49381 38000 ft 504 kts 332°
2026-05-07 17:03 35.11427 27.45452 38000 ft 504 kts 332°
2026-05-07 17:04 35.17648 27.41535 38000 ft 504 kts 332°
2026-05-07 17:04 35.23889 27.37598 38000 ft 504 kts 332°
2026-05-07 17:05 35.29061 27.34330 38000 ft 504 kts 332°
2026-05-07 17:05 35.35303 27.30380 38000 ft 504 kts 332°
2026-05-07 17:06 35.41539 27.26426 38000 ft 504 kts 332°
2026-05-07 17:06 35.47772 27.22468 38000 ft 504 kts 332°
2026-05-07 17:07 35.54011 27.18499 38000 ft 505 kts 332°
2026-05-07 17:07 35.60294 27.14495 38000 ft 509 kts 332°
2026-05-07 17:08 35.66562 27.10494 38000 ft 504 kts 332°
2026-05-07 17:08 35.72776 27.06520 38000 ft 504 kts 332°
2026-05-07 17:09 35.79004 27.02530 38000 ft 504 kts 332°
2026-05-07 17:09 35.85226 26.98536 38000 ft 504 kts 332°
2026-05-07 17:10 35.91453 26.94532 38000 ft 504 kts 332°
2026-05-07 17:10 35.97675 26.90524 38000 ft 504 kts 332°
2026-05-07 17:11 36.03895 26.86511 38000 ft 504 kts 332°
2026-05-07 17:11 36.10109 26.82493 38000 ft 504 kts 332°
2026-05-07 17:12 36.16328 26.78466 38000 ft 504 kts 332°
2026-05-07 17:12 36.22545 26.74433 38000 ft 504 kts 332°
2026-05-07 17:13 36.28763 26.70392 38000 ft 504 kts 332°
2026-05-07 17:13 36.34981 26.66342 38001 ft 505 kts 332°
2026-05-07 17:14 36.41199 26.62287 38000 ft 504 kts 332°
2026-05-07 17:14 36.47415 26.58224 38000 ft 504 kts 332°
2026-05-07 17:15 36.53622 26.54161 38000 ft 504 kts 332°
2026-05-07 17:15 36.59832 26.50088 38000 ft 504 kts 332°
2026-05-07 17:16 36.66042 26.46007 38000 ft 504 kts 332°
2026-05-07 17:16 36.72203 26.41951 38000 ft 504 kts 332°
2026-05-07 17:17 36.78407 26.37860 38000 ft 504 kts 332°
2026-05-07 17:17 36.84619 26.33755 38000 ft 504 kts 332°
2026-05-07 17:18 36.90833 26.29644 38000 ft 504 kts 332°
2026-05-07 17:18 36.97042 26.25530 38000 ft 504 kts 332°
2026-05-07 17:19 37.03307 26.21559 38000 ft 504 kts 334°
2026-05-07 17:19 37.09605 26.17782 38000 ft 504 kts 334°
2026-05-07 17:20 37.15916 26.13952 38000 ft 504 kts 334°
2026-05-07 17:20 37.22223 26.10093 38000 ft 504 kts 334°
2026-05-07 17:21 37.28527 26.06225 38000 ft 504 kts 334°
2026-05-07 17:21 37.34837 26.02345 38000 ft 504 kts 334°
2026-05-07 17:22 37.41147 25.98460 38000 ft 504 kts 334°
2026-05-07 17:22 37.47450 25.94570 38000 ft 504 kts 334°
2026-05-07 17:23 37.53757 25.90672 38000 ft 504 kts 333°
2026-05-07 17:23 37.60057 25.86771 38000 ft 504 kts 334°
2026-05-07 17:24 37.66381 25.82931 38000 ft 504 kts 334°
2026-05-07 17:24 37.72691 25.79119 38000 ft 504 kts 334°
2026-05-07 17:25 37.79021 25.75278 38000 ft 504 kts 334°
2026-05-07 17:25 37.85304 25.71454 38000 ft 504 kts 334°
2026-05-07 17:26 37.91627 25.67595 38000 ft 504 kts 334°
2026-05-07 17:26 37.97960 25.63723 38000 ft 504 kts 334°
2026-05-07 17:27 38.04277 25.59854 38000 ft 504 kts 334°
2026-05-07 17:27 38.10603 25.55972 38000 ft 504 kts 334°
2026-05-07 17:28 38.16913 25.52092 38000 ft 504 kts 334°
2026-05-07 17:28 38.23239 25.48194 38000 ft 504 kts 334°
2026-05-07 17:29 38.29558 25.44294 38000 ft 504 kts 334°
2026-05-07 17:29 38.35868 25.40391 38000 ft 504 kts 334°
2026-05-07 17:30 38.42181 25.36479 38000 ft 504 kts 334°
2026-05-07 17:30 38.48498 25.32557 38000 ft 504 kts 334°
2026-05-07 17:31 38.54810 25.28630 38000 ft 504 kts 334°
2026-05-07 17:31 38.61117 25.24698 38000 ft 504 kts 334°
2026-05-07 17:32 38.67380 25.20786 38000 ft 504 kts 334°
2026-05-07 17:32 38.72672 25.17476 38000 ft 504 kts 334°
2026-05-07 17:33 38.79995 25.12884 38000 ft 504 kts 334°
2026-05-07 17:33 38.86306 25.08919 38000 ft 504 kts 334°
2026-05-07 17:34 38.92609 25.04951 38000 ft 504 kts 334°
2026-05-07 17:34 38.98904 25.00981 38000 ft 504 kts 333°
2026-05-07 17:35 39.05216 24.96991 38000 ft 504 kts 333°
2026-05-07 17:35 39.11506 24.93008 38000 ft 504 kts 333°
2026-05-07 17:36 39.17822 24.88999 38000 ft 504 kts 333°
2026-05-07 17:36 39.24118 24.84996 38000 ft 504 kts 333°
2026-05-07 17:37 39.30418 24.80982 38000 ft 504 kts 333°
2026-05-07 17:37 39.36711 24.76964 38000 ft 504 kts 333°
2026-05-07 17:38 39.42970 24.72960 38000 ft 504 kts 333°
2026-05-07 17:38 39.49261 24.68928 38000 ft 504 kts 333°
2026-05-07 17:39 39.55550 24.64888 38000 ft 504 kts 333°
2026-05-07 17:39 39.61831 24.60845 38000 ft 504 kts 333°
2026-05-07 17:40 39.68118 24.56791 38000 ft 504 kts 333°
2026-05-07 17:40 39.74404 24.52728 38000 ft 504 kts 333°
2026-05-07 17:41 39.80692 24.48656 38000 ft 504 kts 333°
2026-05-07 17:41 39.86982 24.44574 38000 ft 504 kts 333°
2026-05-07 17:42 39.93260 24.40492 38000 ft 504 kts 333°
2026-05-07 17:42 39.99545 24.36397 38000 ft 504 kts 333°
2026-05-07 17:43 40.05819 24.32300 38000 ft 504 kts 333°
2026-05-07 17:43 40.12059 24.28217 38000 ft 504 kts 333°
2026-05-07 17:44 40.18335 24.24103 38000 ft 504 kts 333°
2026-05-07 17:44 40.24616 24.19975 38000 ft 504 kts 333°
2026-05-07 17:45 40.30914 24.15829 38001 ft 506 kts 333°
2026-05-07 17:45 40.37201 24.11681 38000 ft 504 kts 333°
2026-05-07 17:46 40.43475 24.07533 38000 ft 504 kts 333°
2026-05-07 17:46 40.49740 24.03383 38000 ft 504 kts 333°
2026-05-07 17:47 40.54949 23.99927 38000 ft 504 kts 333°
2026-05-07 17:47 40.61215 23.95772 38000 ft 504 kts 333°
2026-05-07 17:48 40.67546 23.91796 38000 ft 504 kts 334°
2026-05-07 17:48 40.73895 23.87841 38000 ft 504 kts 334°
2026-05-07 17:49 40.80240 23.83851 38000 ft 505 kts 334°
2026-05-07 17:49 40.86574 23.79851 38000 ft 505 kts 334°
2026-05-07 17:50 40.92914 23.75837 38000 ft 504 kts 334°
2026-05-07 17:50 40.99246 23.71821 38000 ft 505 kts 334°
2026-05-07 17:51 41.05540 23.67820 38000 ft 505 kts 334°
2026-05-07 17:51 41.11886 23.63777 38000 ft 508 kts 334°
2026-05-07 17:52 41.18258 23.59710 37999 ft 509 kts 334°
2026-05-07 17:52 41.24671 23.55607 38001 ft 516 kts 334°
2026-05-07 17:53 41.31089 23.51473 37997 ft 507 kts 332°
2026-05-07 17:53 41.36922 23.46177 38000 ft 509 kts 322°
2026-05-07 17:54 41.42540 23.40528 38000 ft 505 kts 323°
2026-05-07 17:54 41.48248 23.35028 38001 ft 506 kts 324°
2026-05-07 17:55 41.53985 23.29577 38000 ft 506 kts 324°
2026-05-07 17:55 41.59723 23.24121 38000 ft 506 kts 324°
2026-05-07 17:56 41.65452 23.18659 38000 ft 505 kts 324°
2026-05-07 17:56 41.71177 23.13185 38000 ft 508 kts 324°
2026-05-07 17:57 41.75965 23.08594 38000 ft 510 kts 324°
2026-05-07 17:57 41.82713 23.02108 37999 ft 511 kts 324°
2026-05-07 17:58 41.88482 22.96550 38000 ft 511 kts 324°
2026-05-07 17:58 41.94254 22.90976 38000 ft 514 kts 324°
2026-05-07 17:59 42.00037 22.85378 38000 ft 512 kts 324°
2026-05-07 17:59 42.05807 22.79781 38000 ft 510 kts 324°
2026-05-07 18:00 42.11591 22.74156 38000 ft 511 kts 324°
2026-05-07 18:00 42.17335 22.68558 38000 ft 514 kts 324°
2026-05-07 18:01 42.23114 22.62913 38001 ft 514 kts 324°
2026-05-07 18:01 42.28885 22.57262 38000 ft 512 kts 324°
2026-05-07 18:02 42.37538 22.48767 38000 ft 514 kts 323°
2026-05-07 18:03 42.43307 22.43085 38001 ft 512 kts 323°
2026-05-07 18:03 42.49076 22.37391 38000 ft 512 kts 323°
2026-05-07 18:04 42.54855 22.31673 37999 ft 517 kts 323°
2026-05-07 18:04 42.60653 22.25923 38002 ft 515 kts 323°
2026-05-07 18:05 42.66394 22.20216 38000 ft 514 kts 323°
2026-05-07 18:05 42.72107 22.14524 38000 ft 506 kts 323°
2026-05-07 18:06 42.77814 22.08824 38000 ft 508 kts 323°
2026-05-07 18:06 42.83532 22.03100 37999 ft 512 kts 323°
2026-05-07 18:07 42.89237 21.97376 38000 ft 506 kts 323°
2026-05-07 18:07 42.94903 21.91678 38000 ft 506 kts 323°
2026-05-07 18:08 43.00567 21.85967 38000 ft 506 kts 323°
2026-05-07 18:08 43.06235 21.80241 38000 ft 506 kts 323°
2026-05-07 18:09 43.11896 21.74506 38000 ft 506 kts 323°
2026-05-07 18:09 43.17552 21.68764 38000 ft 506 kts 323°
2026-05-07 18:10 43.23168 21.63049 38000 ft 506 kts 323°
2026-05-07 18:10 43.28823 21.57280 38000 ft 508 kts 323°
2026-05-07 18:11 43.34493 21.51483 38000 ft 509 kts 323°
2026-05-07 18:11 43.40222 21.45612 38001 ft 514 kts 323°
2026-05-07 18:12 43.45922 21.39756 38001 ft 510 kts 323°
2026-05-07 18:12 43.51577 21.33932 38000 ft 504 kts 323°
2026-05-07 18:13 43.57212 21.28115 38000 ft 506 kts 323°
2026-05-07 18:13 43.62841 21.22289 38000 ft 507 kts 323°
2026-05-07 18:14 43.68446 21.16476 38000 ft 506 kts 323°
2026-05-07 18:14 43.74077 21.10621 38000 ft 508 kts 323°
2026-05-07 18:15 43.79710 21.04749 38000 ft 507 kts 323°
2026-05-07 18:15 43.85352 20.98854 38000 ft 509 kts 323°
2026-05-07 18:16 43.91001 20.92938 38001 ft 509 kts 322°
2026-05-07 18:16 43.96638 20.87020 38000 ft 506 kts 322°
2026-05-07 18:17 44.02255 20.81108 38000 ft 506 kts 322°
2026-05-07 18:17 44.07852 20.75203 38001 ft 507 kts 322°
2026-05-07 18:18 44.13469 20.69262 38000 ft 509 kts 322°
2026-05-07 18:18 44.19080 20.63313 38000 ft 506 kts 322°
2026-05-07 18:19 44.24686 20.57354 38000 ft 507 kts 322°
2026-05-07 18:19 44.30309 20.51364 38000 ft 508 kts 322°
2026-05-07 18:20 44.35910 20.45382 38001 ft 506 kts 322°
2026-05-07 18:20 44.41463 20.39436 38000 ft 505 kts 322°
2026-05-07 18:21 44.47046 20.33444 38000 ft 505 kts 322°
2026-05-07 18:21 44.52613 20.27453 38000 ft 505 kts 322°
2026-05-07 18:22 44.58187 20.21440 38000 ft 505 kts 322°
2026-05-07 18:22 44.63743 20.15433 38000 ft 505 kts 322°
2026-05-07 18:23 44.69309 20.09399 38000 ft 505 kts 322°
2026-05-07 18:23 44.74865 20.03360 38000 ft 505 kts 322°
2026-05-07 18:24 44.80418 19.97310 38000 ft 505 kts 322°
2026-05-07 18:24 44.85968 19.91249 38000 ft 505 kts 322°
2026-05-07 18:25 44.91517 19.85174 38000 ft 505 kts 322°
2026-05-07 18:25 44.97054 19.79095 38000 ft 505 kts 322°
2026-05-07 18:26 45.02598 19.72995 38000 ft 505 kts 322°
2026-05-07 18:26 45.08138 19.66883 38000 ft 505 kts 322°
2026-05-07 18:27 45.13647 19.60790 38000 ft 507 kts 322°
2026-05-07 18:27 45.19202 19.54630 38000 ft 505 kts 322°
2026-05-07 18:28 45.24731 19.48483 38000 ft 505 kts 322°
2026-05-07 18:28 45.30272 19.42308 38000 ft 505 kts 321°
2026-05-07 18:28 45.33039 19.39218 38192 ft 508 kts 321°
2026-05-07 18:29 45.35781 19.36153 38565 ft 507 kts 321°
2026-05-07 18:29 45.38550 19.33053 38933 ft 507 kts 321°
2026-05-07 18:29 45.41318 19.29951 39261 ft 507 kts 321°
2026-05-07 18:29 45.44089 19.26840 39601 ft 507 kts 321°
2026-05-07 18:30 45.46861 19.23725 39909 ft 508 kts 321°
2026-05-07 18:30 45.49642 19.20596 40010 ft 512 kts 321°
2026-05-07 18:30 45.52412 19.17475 40002 ft 504 kts 321°
2026-05-07 18:31 45.57905 19.11274 39998 ft 505 kts 321°
2026-05-07 18:31 45.63413 19.05041 40000 ft 505 kts 321°
2026-05-07 18:32 45.68913 18.98799 40000 ft 505 kts 321°
2026-05-07 18:32 45.74412 18.92544 39998 ft 505 kts 321°
2026-05-07 18:33 45.78987 18.87326 40000 ft 505 kts 321°
2026-05-07 18:33 45.84486 18.81041 40000 ft 505 kts 321°
2026-05-07 18:34 45.89985 18.74738 40000 ft 505 kts 321°
2026-05-07 18:34 45.95469 18.68436 40002 ft 505 kts 321°
2026-05-07 18:35 46.00920 18.62158 40000 ft 505 kts 321°
2026-05-07 18:35 46.06406 18.55821 40000 ft 506 kts 321°
2026-05-07 18:36 46.11888 18.49472 40000 ft 506 kts 321°
2026-05-07 18:36 46.17373 18.43103 40000 ft 506 kts 321°
2026-05-07 18:37 46.22865 18.36708 40002 ft 508 kts 321°
2026-05-07 18:37 46.28352 18.30304 39999 ft 505 kts 321°
2026-05-07 18:38 46.33826 18.23897 40000 ft 505 kts 321°
2026-05-07 18:38 46.39284 18.17492 39999 ft 505 kts 321°
2026-05-07 18:39 46.44749 18.11062 40003 ft 505 kts 321°
2026-05-07 18:39 46.50200 18.04631 39998 ft 505 kts 321°
2026-05-07 18:40 46.55626 17.98212 40000 ft 506 kts 320°
2026-05-07 18:40 46.61077 17.91746 40000 ft 505 kts 320°
2026-05-07 18:41 46.66524 17.85269 40001 ft 506 kts 320°
2026-05-07 18:41 46.71973 17.78771 40000 ft 506 kts 320°
2026-05-07 18:42 46.77397 17.72286 39998 ft 505 kts 320°
2026-05-07 18:42 46.82831 17.65770 39997 ft 505 kts 320°
2026-05-07 18:43 46.88277 17.59224 40000 ft 505 kts 320°
2026-05-07 18:43 46.93707 17.52678 40000 ft 505 kts 320°
2026-05-07 18:44 46.99158 17.46089 40000 ft 506 kts 320°
2026-05-07 18:44 47.04576 17.39522 39998 ft 506 kts 320°
2026-05-07 18:45 47.09990 17.32942 39999 ft 505 kts 320°
2026-05-07 18:45 47.15372 17.26384 40002 ft 505 kts 320°
2026-05-07 18:46 47.20776 17.19780 39999 ft 505 kts 320°
2026-05-07 18:46 47.26177 17.13162 39998 ft 505 kts 320°
2026-05-07 18:47 47.31581 17.06524 40000 ft 505 kts 320°
2026-05-07 18:47 47.36984 16.99877 40002 ft 505 kts 320°
2026-05-07 18:48 47.42381 16.93220 40000 ft 505 kts 320°
2026-05-07 18:48 47.47771 16.86554 39997 ft 505 kts 320°
2026-05-07 18:49 47.53169 16.79858 40000 ft 506 kts 319°
2026-05-07 18:49 47.58267 16.72698 40000 ft 505 kts 313°
2026-05-07 18:50 47.62890 16.64923 40000 ft 505 kts 311°
2026-05-07 18:50 47.67569 16.57129 39997 ft 506 kts 311°
2026-05-07 18:51 47.72232 16.49304 40000 ft 506 kts 311°
2026-05-07 18:51 47.76884 16.41436 40002 ft 506 kts 311°
2026-05-07 18:52 47.81523 16.33562 40001 ft 506 kts 311°
2026-05-07 18:52 47.86132 16.25714 40000 ft 506 kts 311°
2026-05-07 18:53 47.90794 16.17754 40000 ft 506 kts 311°
2026-05-07 18:53 47.95391 16.09881 40002 ft 506 kts 311°
2026-05-07 18:54 48.00012 16.01944 40000 ft 507 kts 311°
2026-05-07 18:54 48.04643 15.93966 40000 ft 508 kts 310°
2026-05-07 18:55 48.09278 15.85957 39999 ft 508 kts 310°
2026-05-07 18:55 48.13888 15.77967 40000 ft 507 kts 310°
2026-05-07 18:56 48.18486 15.69974 40000 ft 506 kts 310°
2026-05-07 18:56 48.23052 15.62013 40001 ft 506 kts 310°
2026-05-07 18:57 48.27645 15.53981 39999 ft 507 kts 310°
2026-05-07 18:57 48.32240 15.45920 40000 ft 507 kts 310°
2026-05-07 18:58 48.36824 15.37855 40000 ft 506 kts 310°
2026-05-07 18:58 48.41409 15.29765 39999 ft 509 kts 310°
2026-05-07 18:59 48.46005 15.21629 39998 ft 510 kts 310°
2026-05-07 18:59 48.50590 15.13489 40000 ft 509 kts 310°
2026-05-07 19:00 48.55171 15.05329 40000 ft 509 kts 310°
2026-05-07 19:00 48.59744 14.97159 40000 ft 509 kts 310°
2026-05-07 19:01 48.64323 14.88954 40000 ft 509 kts 310°
2026-05-07 19:01 48.68885 14.80754 40000 ft 509 kts 310°
2026-05-07 19:02 48.73441 14.72538 40003 ft 510 kts 310°
2026-05-07 19:02 48.77962 14.64362 40000 ft 508 kts 310°
2026-05-07 19:03 48.82496 14.56136 40001 ft 508 kts 309°
2026-05-07 19:03 48.87017 14.47908 39999 ft 507 kts 309°
2026-05-07 19:04 48.91535 14.39662 40000 ft 507 kts 309°
2026-05-07 19:04 48.96508 14.32077 39999 ft 508 kts 320°
2026-05-07 19:05 49.02213 14.25707 40000 ft 507 kts 324°
2026-05-07 19:05 49.07962 14.19438 40000 ft 508 kts 324°
2026-05-07 19:06 49.13708 14.13170 40000 ft 508 kts 324°
2026-05-07 19:06 49.22318 14.03774 39999 ft 508 kts 324°
2026-05-07 19:07 49.28058 13.97489 39999 ft 507 kts 324°
2026-05-07 19:07 49.33802 13.91181 39999 ft 508 kts 324°
2026-05-07 19:08 49.39504 13.84738 40002 ft 508 kts 320°
2026-05-07 19:08 49.44551 13.77255 39999 ft 507 kts 311°
2026-05-07 19:09 49.49048 13.68874 39998 ft 508 kts 309°
2026-05-07 19:09 49.53544 13.60489 40000 ft 507 kts 309°
2026-05-07 19:10 49.58007 13.52084 40000 ft 507 kts 309°
2026-05-07 19:10 49.62461 13.43639 40000 ft 508 kts 309°
2026-05-07 19:11 49.66903 13.35188 39999 ft 507 kts 309°
2026-05-07 19:11 49.71340 13.26718 40000 ft 506 kts 309°
2026-05-07 19:12 49.75772 13.18231 39998 ft 507 kts 309°
2026-05-07 19:12 49.80194 13.09735 39997 ft 507 kts 308°
2026-05-07 19:13 49.84582 13.01279 40000 ft 507 kts 308°
2026-05-07 19:13 49.89007 12.92723 40000 ft 508 kts 308°
2026-05-07 19:14 49.93422 12.84159 40002 ft 509 kts 308°
2026-05-07 19:14 49.97841 12.75560 40000 ft 510 kts 308°
2026-05-07 19:15 50.02260 12.66929 40000 ft 510 kts 308°
2026-05-07 19:15 50.06674 12.58283 40000 ft 509 kts 308°
2026-05-07 19:16 50.11038 12.49706 39998 ft 507 kts 308°
2026-05-07 19:16 50.15388 12.41052 40000 ft 507 kts 305°
2026-05-07 19:17 50.19073 12.31670 40002 ft 508 kts 297°
2026-05-07 19:17 50.21855 12.21528 40000 ft 508 kts 289°
2026-05-07 19:18 50.23840 12.12889 39999 ft 508 kts 290°
2026-05-07 19:18 50.26246 12.02507 39991 ft 507 kts 289°
2026-05-07 19:19 50.27431 11.97345 39781 ft 505 kts 289°
2026-05-07 19:19 50.28616 11.92197 39315 ft 501 kts 290°
2026-05-07 19:19 50.29791 11.87080 38645 ft 499 kts 289°
2026-05-07 19:19 50.30960 11.81975 37946 ft 497 kts 289°
2026-05-07 19:20 50.32121 11.76886 37257 ft 496 kts 289°
2026-05-07 19:20 50.33276 11.71811 36547 ft 494 kts 289°
2026-05-07 19:20 50.34423 11.66756 35854 ft 492 kts 289°
2026-05-07 19:20 50.35566 11.61702 35165 ft 490 kts 289°
2026-05-07 19:21 50.36699 11.56685 34470 ft 488 kts 289°
2026-05-07 19:21 50.37826 11.51680 33757 ft 486 kts 289°
2026-05-07 19:21 50.38944 11.46707 33072 ft 484 kts 289°
2026-05-07 19:21 50.40057 11.41739 32389 ft 481 kts 289°
2026-05-07 19:22 50.41156 11.36824 32066 ft 472 kts 289°
2026-05-07 19:22 50.42237 11.31984 31993 ft 469 kts 289°
2026-05-07 19:22 50.44387 11.22299 32001 ft 476 kts 289°
2026-05-07 19:23 50.46543 11.12538 32000 ft 470 kts 289°
2026-05-07 19:23 50.48672 11.02855 31991 ft 469 kts 289°
2026-05-07 19:24 50.49731 10.98024 31848 ft 467 kts 289°
2026-05-07 19:24 50.50785 10.93204 31412 ft 466 kts 289°
2026-05-07 19:24 50.51838 10.88374 30759 ft 466 kts 289°
2026-05-07 19:24 50.52882 10.83579 30059 ft 464 kts 289°
2026-05-07 19:25 50.53932 10.78772 29357 ft 462 kts 289°
2026-05-07 19:25 50.55006 10.74027 28664 ft 460 kts 289°
2026-05-07 19:25 50.56088 10.69300 27962 ft 458 kts 290°
2026-05-07 19:25 50.57148 10.64660 27272 ft 455 kts 289°
2026-05-07 19:26 50.58210 10.59983 26571 ft 453 kts 289°
2026-05-07 19:26 50.59261 10.55334 25873 ft 450 kts 289°
2026-05-07 19:26 50.60306 10.50711 25173 ft 447 kts 289°
2026-05-07 19:26 50.61340 10.46131 24480 ft 443 kts 289°
2026-05-07 19:27 50.62363 10.41587 24107 ft 433 kts 289°
2026-05-07 19:27 50.63352 10.37187 23999 ft 417 kts 289°
2026-05-07 19:27 50.64240 10.32906 23996 ft 409 kts 282°
2026-05-07 19:27 50.64519 10.28451 24001 ft 412 kts 267°
2026-05-07 19:28 50.64051 10.24006 24000 ft 412 kts 252°
2026-05-07 19:28 50.62894 10.19864 24003 ft 414 kts 242°
2026-05-07 19:28 50.61455 10.15940 24000 ft 413 kts 239°
2026-05-07 19:28 50.59990 10.12062 24000 ft 413 kts 239°
2026-05-07 19:29 50.58542 10.08136 24000 ft 414 kts 240°
2026-05-07 19:29 50.57127 10.04190 24000 ft 414 kts 241°
2026-05-07 19:29 50.55732 10.00233 23993 ft 412 kts 241°
2026-05-07 19:29 50.54418 9.96247 23647 ft 409 kts 246°
2026-05-07 19:30 50.53439 9.92060 23166 ft 407 kts 254°
2026-05-07 19:30 50.52693 9.87789 22600 ft 404 kts 255°
2026-05-07 19:30 50.51958 9.83623 22096 ft 400 kts 254°
2026-05-07 19:30 50.51205 9.79425 21568 ft 396 kts 254°
2026-05-07 19:31 50.50456 9.75277 21031 ft 393 kts 254°
2026-05-07 19:31 50.49729 9.71234 20507 ft 390 kts 255°
2026-05-07 19:31 50.49023 9.67147 19989 ft 386 kts 255°
2026-05-07 19:31 50.48329 9.63079 19440 ft 384 kts 255°
2026-05-07 19:32 50.47638 9.59031 18899 ft 381 kts 255°
2026-05-07 19:32 50.46935 9.55029 18371 ft 377 kts 254°
2026-05-07 19:32 50.46206 9.51142 17844 ft 375 kts 253°
2026-05-07 19:32 50.45456 9.47234 17299 ft 372 kts 253°
2026-05-07 19:33 50.44713 9.43365 16767 ft 369 kts 253°
2026-05-07 19:33 50.43990 9.39582 16233 ft 366 kts 253°
2026-05-07 19:33 50.43249 9.35692 15720 ft 363 kts 253°
2026-05-07 19:33 50.42537 9.31956 15182 ft 360 kts 253°
2026-05-07 19:34 50.41821 9.28202 14664 ft 357 kts 253°
2026-05-07 19:34 50.41099 9.24478 14124 ft 354 kts 251°
2026-05-07 19:34 50.40256 9.20865 13594 ft 352 kts 250°
2026-05-07 19:34 50.39417 9.17279 13156 ft 348 kts 250°
2026-05-07 19:35 50.38592 9.13722 13010 ft 348 kts 250°
2026-05-07 19:35 50.37767 9.10159 13000 ft 348 kts 250°
2026-05-07 19:35 50.36943 9.06602 13000 ft 348 kts 250°
2026-05-07 19:35 50.36113 9.03031 13000 ft 348 kts 250°
2026-05-07 19:36 50.35282 8.99465 12999 ft 348 kts 250°
2026-05-07 19:36 50.34450 8.95904 12999 ft 348 kts 250°
2026-05-07 19:36 50.33627 8.92387 13000 ft 348 kts 250°
2026-05-07 19:36 50.32632 8.88955 12974 ft 347 kts 236°
2026-05-07 19:37 50.30987 8.86237 12708 ft 345 kts 216°
2026-05-07 19:37 50.28832 8.84619 12280 ft 344 kts 195°
2026-05-07 19:37 50.26458 8.84325 11718 ft 343 kts 173°
2026-05-07 19:37 50.24188 8.85334 11184 ft 341 kts 158°
2026-05-07 19:38 50.22070 8.86991 10649 ft 338 kts 149°
2026-05-07 19:38 50.20161 8.89084 10130 ft 336 kts 141°
2026-05-07 19:38 50.18471 8.91593 9602 ft 334 kts 132°
2026-05-07 19:38 50.17073 8.94402 9174 ft 331 kts 123°
2026-05-07 19:39 50.15961 8.97542 9038 ft 331 kts 114°
2026-05-07 19:39 50.15168 9.00908 8997 ft 331 kts 105°
2026-05-07 19:39 50.14709 9.04423 9000 ft 332 kts 97°
2026-05-07 19:39 50.14592 9.08019 9000 ft 332 kts 88°
2026-05-07 19:40 50.14821 9.11606 9000 ft 332 kts 79°
2026-05-07 19:40 50.15390 9.15089 9000 ft 332 kts 71°
2026-05-07 19:40 50.16290 9.18407 9000 ft 332 kts 62°
2026-05-07 19:40 50.17494 9.21471 9000 ft 332 kts 54°
2026-05-07 19:41 50.19028 9.24146 9002 ft 331 kts 40°
2026-05-07 19:41 50.20847 9.26365 8999 ft 332 kts 36°
2026-05-07 19:41 50.22708 9.28489 9000 ft 331 kts 36°
2026-05-07 19:41 50.24571 9.30621 9000 ft 331 kts 36°
2026-05-07 19:42 50.26414 9.32773 9000 ft 331 kts 37°
2026-05-07 19:42 50.28257 9.34960 9000 ft 332 kts 37°
2026-05-07 19:42 50.30086 9.37149 9000 ft 332 kts 37°
2026-05-07 19:42 50.31917 9.39351 9000 ft 332 kts 37°
2026-05-07 19:43 50.33747 9.41555 9000 ft 332 kts 37°
2026-05-07 19:43 50.35578 9.43763 9000 ft 332 kts 37°
2026-05-07 19:43 50.37463 9.45855 8998 ft 331 kts 27°
2026-05-07 19:43 50.39655 9.46886 9001 ft 331 kts
2026-05-07 19:44 50.41931 9.46541 9000 ft 330 kts 342°
2026-05-07 19:44 50.43949 9.44865 9000 ft 330 kts 320°
2026-05-07 19:44 50.45402 9.42119 9001 ft 329 kts 297°
2026-05-07 19:44 50.46077 9.38713 9000 ft 329 kts 275°
2026-05-07 19:45 50.45872 9.35149 9002 ft 329 kts 253°
2026-05-07 19:45 50.44820 9.31982 9002 ft 329 kts 232°
2026-05-07 19:45 50.43362 9.29235 8999 ft 330 kts 232°
2026-05-07 19:45 50.41948 9.26408 9000 ft 330 kts 229°
2026-05-07 19:46 50.40286 9.23974 9000 ft 330 kts 217°
2026-05-07 19:46 50.38327 9.22107 9001 ft 330 kts 210°
2026-05-07 19:46 50.36349 9.20281 9000 ft 330 kts 212°
2026-05-07 19:46 50.34395 9.18386 9000 ft 330 kts 212°
2026-05-07 19:47 50.32465 9.16497 9000 ft 330 kts 212°
2026-05-07 19:47 50.30518 9.14596 9000 ft 330 kts 212°
2026-05-07 19:47 50.28584 9.12670 8998 ft 328 kts 217°
2026-05-07 19:47 50.27008 9.10124 8871 ft 326 kts 236°
2026-05-07 19:48 50.26042 9.06936 8488 ft 324 kts 251°
2026-05-07 19:48 50.25307 9.03627 7938 ft 322 kts 251°
2026-05-07 19:48 50.24556 9.00325 7415 ft 320 kts 250°
2026-05-07 19:48 50.23802 8.97068 6895 ft 318 kts 250°
2026-05-07 19:49 50.23048 8.93841 6362 ft 315 kts 250°
2026-05-07 19:49 50.22296 8.90637 5846 ft 313 kts 250°
2026-05-07 19:49 50.21549 8.87461 5380 ft 308 kts 250°
2026-05-07 19:49 50.20826 8.84394 5098 ft 299 kts 250°
2026-05-07 19:50 50.20106 8.81339 5032 ft 299 kts 250°
2026-05-07 19:50 50.19387 8.78294 5038 ft 307 kts 250°
2026-05-07 19:50 50.18645 8.75152 5038 ft 309 kts 250°
2026-05-07 19:50 50.17901 8.72010 5033 ft 308 kts 250°
2026-05-07 19:51 50.17159 8.68879 5036 ft 308 kts 250°
2026-05-07 19:51 50.16417 8.65756 5033 ft 308 kts 250°
2026-05-07 19:51 50.15673 8.62625 5032 ft 308 kts 250°
2026-05-07 19:51 50.14928 8.59498 5034 ft 308 kts 250°
2026-05-07 19:52 50.14182 8.56369 5035 ft 308 kts 250°
2026-05-07 19:52 50.13435 8.53240 5034 ft 308 kts 250°
2026-05-07 19:52 50.12689 8.50121 5033 ft 308 kts 250°
2026-05-07 19:52 50.11937 8.46977 5033 ft 308 kts 250°
2026-05-07 19:53 50.11189 8.43858 5036 ft 308 kts 250°
2026-05-07 19:53 50.10436 8.40728 5034 ft 308 kts 249°
2026-05-07 19:53 50.09678 8.37596 5036 ft 312 kts 249°
2026-05-07 19:53 50.08878 8.34291 5038 ft 339 kts 249°
2026-05-07 19:54 50.08037 8.30823 5033 ft 351 kts 249°
2026-05-07 19:54 50.07169 8.27249 5031 ft 354 kts 249°
2026-05-07 19:54 50.06299 8.23672 5036 ft 353 kts 249°
2026-05-07 19:54 50.05431 8.20106 5036 ft 352 kts 249°
2026-05-07 19:55 50.04561 8.16538 5037 ft 352 kts 249°
2026-05-07 19:55 50.03695 8.12995 4868 ft 349 kts 249°
2026-05-07 19:55 50.02832 8.09467 4361 ft 348 kts 249°
2026-05-07 19:55 50.01977 8.05966 4096 ft 347 kts 249°
2026-05-07 19:56 50.01122 8.02460 4034 ft 347 kts 249°
2026-05-07 19:56 50.00264 7.98949 4034 ft 347 kts 249°
2026-05-07 19:56 49.99413 7.95474 4034 ft 348 kts 249°
2026-05-07 19:56 49.98547 7.91947 4099 ft 350 kts 250°
2026-05-07 19:57 49.97679 7.88416 4099 ft 349 kts 250°
2026-05-07 19:57 49.96808 7.84898 4097 ft 348 kts 248°
2026-05-07 19:57 49.95414 7.81896 4323 ft 346 kts 217°
2026-05-07 19:57 49.93293 7.80579 4801 ft 314 kts 187°
2026-05-07 19:58 49.91259 7.80799 5234 ft 282 kts 164°
2026-05-07 19:58 49.89507 7.81985 5361 ft 272 kts 147°
2026-05-07 19:58 49.88055 7.83773 5339 ft 266 kts 140°
2026-05-07 19:58 49.86650 7.85650 5313 ft 267 kts 137°
2026-05-07 19:59 49.85436 7.87835 4979 ft 272 kts 120°
2026-05-07 19:59 49.84743 7.90558 4521 ft 273 kts 101°
2026-05-07 19:59 49.84457 7.93427 4234 ft 267 kts 96°
2026-05-07 19:59 49.84448 7.96208 4149 ft 252 kts 79°
2026-05-07 20:00 49.84797 7.98771 4069 ft 240 kts 76°
2026-05-07 20:00 49.85224 8.01219 3963 ft 231 kts 71°
2026-05-07 20:00 49.85757 8.03521 3855 ft 223 kts 66°
2026-05-07 20:00 49.86431 8.05657 3807 ft 210 kts 59°
2026-05-07 20:01 49.87164 8.07487 3912 ft 190 kts 54°
2026-05-07 20:01 49.87931 8.09032 4031 ft 180 kts 48°
2026-05-07 20:01 49.88799 8.10448 4155 ft 182 kts 43°
2026-05-07 20:01 49.89662 8.11888 4252 ft 184 kts 57°
2026-05-07 20:02 49.90123 8.13739 4370 ft 185 kts 68°
2026-05-07 20:02 49.90726 8.15468 4261 ft 184 kts 52°
2026-05-07 20:02 49.91585 8.16935 4168 ft 183 kts 45°
2026-05-07 20:02 49.92459 8.18375 4074 ft 183 kts 46°
2026-05-07 20:03 49.93305 8.19856 3992 ft 183 kts 49°
2026-05-07 20:03 49.94091 8.21398 3901 ft 182 kts 52°
2026-05-07 20:03 49.94823 8.23009 3814 ft 182 kts 55°
2026-05-07 20:03 49.95283 8.24129 3741 ft 182 kts 57°
2026-05-07 20:04 49.95906 8.25809 3634 ft 182 kts 60°
2026-05-07 20:04 49.96466 8.27568 3548 ft 181 kts 64°
2026-05-07 20:04 49.96970 8.29346 3532 ft 174 kts 66°
2026-05-07 20:04 49.97419 8.31041 3548 ft 168 kts 66°
2026-05-07 20:05 49.97861 8.32722 3546 ft 167 kts 66°
2026-05-07 20:05 49.98293 8.34408 3465 ft 168 kts 67°
2026-05-07 20:05 49.98709 8.36090 3319 ft 166 kts 68°
2026-05-07 20:05 49.99095 8.37780 2970 ft 165 kts 70°
2026-05-07 20:06 49.99465 8.39457 2660 ft 163 kts 69°
2026-05-07 20:06 49.99837 8.41112 2299 ft 162 kts 70°
2026-05-07 20:06 50.00212 8.42742 1927 ft 159 kts 69°
2026-05-07 20:06 50.00607 8.44341 1609 ft 159 kts 68°
2026-05-07 20:07 50.00998 8.45950 1300 ft 160 kts 69°
2026-05-07 20:07 50.01378 8.47569 1083 ft 159 kts 69°
2026-05-07 20:07 50.01770 8.49178 889 ft 159 kts 68°
2026-05-07 20:07 50.02145 8.50768 815 ft 159 kts 70°
2026-05-07 20:08 50.02493 8.52371 597 ft 150 kts 69°
2026-05-07 20:08 50.02863 8.53872 389 ft 139 kts 68°
2026-05-07 20:08 50.03134 8.54972 361 ft 55 kts 70°
2026-05-07 20:08 50.03188 8.55203 356 ft 17 kts 70°
2026-05-07 20:09 50.03226 8.55361 360 ft 14 kts 70°
2026-05-07 20:09 50.03257 8.55496 360 ft 15 kts 70°
2026-05-07 20:09 50.03320 8.55699 360 ft 29 kts 58°
2026-05-07 20:10 50.03679 8.56261 359 ft 37 kts 66°
2026-05-07 20:10 50.03766 8.56609 359 ft 33 kts 69°
2026-05-07 20:10 50.03842 8.56926 359 ft 30 kts 70°
2026-05-07 20:10 50.03911 8.57219 355 ft 28 kts 70°
2026-05-07 20:11 50.03976 8.57492 355 ft 26 kts 69°
2026-05-07 20:11 50.04037 8.57746 360 ft 25 kts 69°
2026-05-07 20:11 50.04101 8.58009 358 ft 28 kts 70°
2026-05-07 20:11 50.04174 8.58318 357 ft 32 kts 70°
2026-05-07 20:12 50.04256 8.58663 359 ft 36 kts 70°
2026-05-07 20:12 50.04345 8.59041 358 ft 38 kts 70°
2026-05-07 20:12 50.04433 8.59411 360 ft 20 kts 63°
2026-05-07 20:12 50.04468 8.59462 360 ft 14 kts 19°
2026-05-07 20:13 50.04627 8.59461 355 ft 31 kts 353°
2026-05-07 20:13 50.04771 8.59422 355 ft 17 kts 348°
2026-05-07 20:13 50.04888 8.59387 359 ft 18 kts 349°
2026-05-07 20:13 50.05007 8.59332 355 ft 18 kts 333°
2026-05-07 20:14 50.05114 8.59226 358 ft 18 kts 327°
2026-05-07 20:14 50.05158 8.59203 358 ft 0 kts 337°
2026-05-07 20:14 50.05168 8.59195 359 ft 0 kts 331°
2026-05-07 20:14 50.05132 8.59212 360 ft 5 kts 343°